Weather History for Oxford, CT

Change the Weather History Date:

Monday, March 18, 2013

  Actual Average Record
Temperature  
Mean Temperature 27 °F -  
Max Temperature 33 °F 41 °F 69 °F (2011)
Min Temperature 21 °F 26 °F 17 °F (2014)
Degree Days  
Heating Degree Days 38    
Moisture  
Dew Point 8 °F    
Average Humidity 49    
Maximum Humidity 80    
Minimum Humidity 32    
Precipitation  
Precipitation 0.00 in - - ()
Sea Level Pressure  
Sea Level Pressure 30.29 in    
Wind  
Wind Speed 8 mph (ENE)    
Max Wind Speed 14 mph    
Max Gust Speed 23 mph    
Visibility 8 miles    
Events Snow    
Averages and records for this station are not official NWS values.
T = Trace of Precipitation, MM = Missing Value Source: NWS Daily Summary

Daily Weather History Graph

Daily Weather History Graph

Search for Another Location

Airport:

Trip Planner

Search our weather history database for the weather conditions in past years. The results will help you decide how hot, cold, wet, or windy it might be!

Date:

Astronomy

Mar. 18, 2013 Rise Set
Actual Time 6:58 AM EDT 7:02 PM EDT
Civil Twilight 6:31 AM EDT 7:30 PM EDT
Nautical Twilight 5:59 AM EDT 8:02 PM EDT
Astronomical Twilight 5:26 AM EDT 8:35 PM EDT
Moon 10:52 AM EDT (3/18) 1:03 AM EDT (3/18)
Length of Visible Light 12h 59m
Length of Day
12h 03m
Waxing Crescent, 40% of the Moon is Illuminated
Mar 18
Waxing Crescent
Mar 19
First Quarter
Mar 27
Full
Apr 3
Last Quarter
Apr 10
New

Hourly Weather History & Observations

Time (EDT) Temp. Windchill Dew Point Humidity Pressure Visibility Wind Dir Wind Speed Gust Speed Precip Events Conditions
12:15 AM 26.6 °F 18.2 °F 6.8 °F 43% 30.29 in 10.0 mi NNW 8.1 mph - N/A   Clear
12:35 AM 24.8 °F 15.3 °F 6.8 °F 46% 30.29 in 10.0 mi North 9.2 mph - N/A   Clear
12:55 AM 24.8 °F 16.9 °F 5.0 °F 43% 30.30 in 10.0 mi North 6.9 mph - N/A   Clear
1:15 AM 24.8 °F 14.6 °F 5.0 °F 43% 30.31 in 10.0 mi North 10.4 mph - N/A   Clear
1:55 AM 23.0 °F 13.1 °F 5.0 °F 46% 30.31 in 10.0 mi North 9.2 mph - N/A   Clear
2:15 AM 23.0 °F 13.1 °F 5.0 °F 46% 30.31 in 10.0 mi North 9.2 mph - N/A   Clear
2:35 AM 21.2 °F 10.1 °F 5.0 °F 50% 30.32 in 10.0 mi NNE 10.4 mph - N/A   Clear
2:55 AM 23.0 °F 13.9 °F 3.2 °F 43% 30.32 in 10.0 mi NNE 8.1 mph - N/A   Clear
3:15 AM 23.0 °F 14.7 °F 5.0 °F 46% 30.33 in 10.0 mi NE 6.9 mph - N/A   Clear
3:35 AM 23.0 °F 14.7 °F 3.2 °F 43% 30.33 in 10.0 mi NE 6.9 mph - N/A   Clear
4:15 AM 21.2 °F 13.6 °F 3.2 °F 46% 30.34 in 10.0 mi NE 5.8 mph - N/A   Clear
4:35 AM 21.2 °F 10.9 °F 3.2 °F 46% 30.34 in 10.0 mi NE 9.2 mph - N/A   Clear
4:55 AM 21.2 °F 12.6 °F 3.2 °F 46% 30.36 in 10.0 mi ENE 6.9 mph - N/A   Clear
5:15 AM 21.2 °F 11.7 °F 3.2 °F 46% 30.36 in 10.0 mi ENE 8.1 mph - N/A   Clear
5:35 AM 21.2 °F 12.6 °F 3.2 °F 46% 30.36 in 10.0 mi NE 6.9 mph - N/A   Clear
5:45 AM 21.2 °F 10.9 °F 1.4 °F 42% 30.37 in 10.0 mi ENE 9.2 mph - N/A   Clear
6:45 AM 21.2 °F 13.6 °F 1.4 °F 42% 30.38 in 10.0 mi ENE 5.8 mph - N/A   Clear
7:45 AM 21.2 °F 11.7 °F 1.4 °F 42% 30.39 in 10.0 mi ENE 8.1 mph - N/A   Clear
8:45 AM 23.0 °F 11.7 °F 1.4 °F 39% 30.40 in 10.0 mi East 11.5 mph - N/A   Clear
9:45 AM 23.0 °F 11.7 °F -0.4 °F 36% 30.38 in 10.0 mi East 11.5 mph - N/A   Clear
10:45 AM 26.6 °F 20.0 °F 5.0 °F 40% 30.39 in 10.0 mi SE 5.8 mph - N/A   Clear
11:45 AM 30.2 °F 25.4 °F 6.8 °F 37% 30.37 in 10.0 mi SE 4.6 mph - N/A   Clear
12:45 PM 32.0 °F 26.4 °F 6.8 °F 35% 30.37 in 10.0 mi SE 5.8 mph - N/A   Clear
1:45 PM 33.8 °F 26.4 °F 6.8 °F 32% 30.34 in 10.0 mi South 9.2 mph - N/A   Clear
3:45 PM 33.8 °F 26.4 °F 8.6 °F 35% 30.27 in 10.0 mi ESE 9.2 mph - N/A   Overcast
4:45 PM 33.8 °F 28.6 °F 10.4 °F 38% 30.25 in 10.0 mi SE 5.8 mph - N/A   Overcast
5:47 PM 32.0 °F 24.8 °F 10.4 °F 41% 30.23 in 10.0 mi SSE 8.1 mph - N/A   Overcast
6:45 PM 30.2 °F 20.8 °F 12.2 °F 47% 30.21 in 9.0 mi ESE 11.5 mph - N/A Snow Light Snow
7:18 PM 28.4 °F 17.5 °F 15.8 °F 59% 30.20 in 3.0 mi ESE 13.8 mph 23.0 mph N/A Snow Light Snow
7:45 PM 26.6 °F 16.2 °F 19.4 °F 74% 30.20 in 2.0 mi ESE 11.5 mph 23.0 mph N/A Snow Light Snow
8:55 PM 26.6 °F 20.0 °F 21.2 °F 80% 30.17 in 2.0 mi East 5.8 mph - N/A   Overcast
9:15 PM 28.4 °F 19.7 °F 21.2 °F 74% 30.16 in 1.8 mi East 9.2 mph - N/A   Overcast
9:35 PM 28.4 °F 18.5 °F 23.0 °F 80% 30.15 in 2.0 mi East 11.5 mph 19.6 mph N/A   Overcast
10:35 PM 28.4 °F 21.2 °F 21.2 °F 74% 30.12 in 1.2 mi East 6.9 mph - N/A   Overcast
11:55 PM 28.4 °F 19.7 °F 23.0 °F 80% 30.07 in 1.0 mi East 9.2 mph - N/A   Overcast